Location: Kam�li
(14.6864°N, 3.1482°W)
Time: 02:10:53
(UTC+00:00)

CSL-04 Debris - Pass Details

Date: 29 October 2020
Orbit: 827 x 848 km, 98.9° (Epoch: 02 December)

Event Time Altitude Azimuth Distance (km) Brightness Sun altitude
Rises 19:08:30 0° 154° (SSE) 3,362 7.2 -20.6°
Reaches altitude 10° 19:10:54 10° 149° (SSE) 2,432 6.4 -21.2°
Enters shadow 19:13:25 27° 135° (SE) 1,555 5.3 -21.8°
Exits shadow 19:16:44 46° 53° (NE) 1,105 4.4 -22.6°
Drops below altitude 10° 19:21:17 10° 2° (N) 2,448 6.5 -23.6°
Sets 19:23:43 0° 357° (N) 3,386 7.3 -24.2°
